Location: Unspecified
(48.7670°N, 0.0000°E)
Time: 19:58:44
(UTC+00:00)

S-56A Canister/Altair - Pass Details

Date: 22 October 2019
Orbit: 634 x 2498 km, 38.9° (Epoch: 11 November)

Event Time Altitude Azimuth Distance (km) Brightness Sun altitude
Exits shadow 03:11:06 36° 158° (SSE) 1,788 9.2 -33.0°
Drops below altitude 10° 03:18:57 10° 101° (ESE) 3,784 11.7 -31.8°
Sets 03:23:02 0° 95° (E) 5,095 12.6 -31.1°
